Location: Unspecified
(51.0950°N, 12.9690°E)
Time: 21:51:27
(UTC+00:00)

First-Move - Pass Details

Date: 28 April 2024
Orbit: 539 x 600 km, 97.7° (Epoch: 17 May)

Event Time Altitude Azimuth Distance (km) Brightness Sun altitude
Rises 02:33:37 0° 15° (NNE) 2,873 ? -10.5°
Reaches altitude 10° 02:35:49 10° 18° (NNE) 1,967 ? -10.3°
Maximum altitude 02:40:05 69° 102° (ESE) 654 ? -9.7°
Drops below altitude 10° 02:44:19 10° 186° (S) 1,945 ? -9.2°
Enters shadow 02:45:54 - 188° (S) 2,596 ? -9.0°
